| time (UTC) | temp F | wind direction | speed MPH | gust MPH | rain 1hr in | rain 24hr in | rain mn in | humidity % | barometer mb |
| 20260504173030 | 61 | 302 | 0.0 | 0.0 | 0.00 | 0.00 | 0.00 | 22 | 1002.0 |
| 20260504171527 | 61 | 302 | 0.0 | 0.0 | 0.00 | 0.00 | 0.00 | 22 | 1002.1 |
| 20260504081504 | 44 | 180 | 0.0 | 0.0 | 0.00 | 0.00 | 0.00 | 38 | 1005.4 |
| 20260504050012 | 44 | 167 | 0.0 | 0.0 | 0.00 | 0.00 | 0.00 | 36 | 1006.5 |
| 20260504044600 | 44 | 167 | 0.0 | 5.0 | 0.00 | 0.00 | 0.00 | 36 | 1006.5 |
| 20260504043105 | 45 | 163 | 0.0 | 1.0 | 0.00 | 0.00 | 0.00 | 35 | 1006.4 |
| 20260504041559 | 45 | 163 | 0.0 | 1.0 | 0.00 | 0.00 | 0.00 | 34 | 1006.4 |
| 20260504040105 | 45 | 170 | 0.0 | 1.0 | 0.00 | 0.00 | 0.00 | 34 | 1006.3 |
| 20260504034616 | 46 | 172 | 0.0 | 0.0 | 0.00 | 0.00 | 0.00 | 33 | 1006.2 |
| 20260504033104 | 46 | 173 | 0.0 | 1.0 | 0.00 | 0.00 | 0.00 | 33 | 1006.1 |
| 20260504031603 | 46 | 193 | 0.0 | 1.0 | 0.00 | 0.00 | 0.00 | 33 | 1005.9 |
| 20260504030056 | 47 | 244 | 0.0 | 1.0 | 0.00 | 0.00 | 0.00 | 31 | 1005.7 |
| 20260504024539 | 49 | 266 | 0.0 | 1.0 | 0.00 | 0.00 | 0.00 | 30 | 1005.6 |
| 20260504023039 | 52 | 270 | 0.0 | 1.0 | 0.00 | 0.00 | 0.00 | 27 | 1005.4 |
| 20260504021521 | 56 | 273 | 0.0 | 0.0 | 0.00 | 0.00 | 0.00 | 23 | 1005.3 |
| 20260504020021 | 59 | 273 | 0.0 | 1.0 | 0.00 | 0.00 | 0.00 | 20 | 1005.2 |
| 20260504014503 | 61 | 273 | 0.0 | 0.0 | 0.00 | 0.00 | 0.00 | 18 | 1005.2 |
| 20260504013002 | 62 | 272 | 0.0 | 4.0 | 0.00 | 0.00 | 0.00 | 15 | 1005.3 |
| 20260504011548 | 63 | 285 | 0.0 | 1.0 | 0.00 | 0.00 | 0.00 | 16 | 1005.3 |
| 20260504010043 | 64 | 285 | 0.0 | 4.0 | 0.00 | 0.00 | 0.00 | 15 | 1005.4 |
| 20260504004525 | 64 | 280 | 0.0 | 2.0 | 0.00 | 0.00 | 0.00 | 15 | 1005.4 |
| 20260504003024 | 64 | 281 | 0.0 | 1.0 | 0.00 | 0.00 | 0.00 | 14 | 1005.5 |
| 20260504001507 | 64 | 273 | 0.0 | 2.0 | 0.00 | 0.00 | 0.00 | 14 | 1005.5 |
| 20260504000005 | 64 | 276 | 0.0 | 15.0 | 0.00 | 0.00 | 0.00 | 15 | 1005.7 |
| 20260503234548 | 64 | 261 | 2.0 | 16.0 | 0.00 | 0.00 | 0.00 | 14 | 1005.7 |
| 20260503233048 | 65 | 271 | 0.0 | 10.0 | 0.00 | 0.00 | 0.00 | 14 | 1005.8 |
| 20260503231529 | 66 | 283 | 0.0 | 12.0 | 0.00 | 0.00 | 0.00 | 13 | 1005.7 |
| 20260503230028 | 66 | 248 | 2.0 | 15.0 | 0.00 | 0.00 | 0.00 | 13 | 1005.7 |
| 20260503224509 | 66 | 247 | 0.0 | 11.0 | 0.00 | 0.00 | 0.00 | 12 | 1005.8 |
| 20260503223008 | 66 | 275 | 0.0 | 11.0 | 0.00 | 0.00 | 0.00 | 12 | 1005.9 |
| 20260503221548 | 67 | 245 | 6.0 | 16.0 | 0.00 | 0.00 | 0.00 | 12 | 1006.1 |
| 20260503220047 | 66 | 279 | 0.0 | 12.0 | 0.00 | 0.00 | 0.00 | 13 | 1006.3 |
| 20260503214540 | 66 | 259 | 0.0 | 15.0 | 0.00 | 0.00 | 0.00 | 13 | 1006.6 |
| 20260503213032 | 66 | 204 | 0.0 | 0.0 | 0.00 | 0.00 | 0.00 | 12 | 1006.9 |
| 20260503211530 | 65 | 72 | 0.0 | 0.0 | 0.00 | 0.00 | 0.00 | 13 | 1007.0 |
| 20260503210029 | 66 | 66 | 0.0 | 0.0 | 0.00 | 0.00 | 0.00 | 13 | 1007.5 |
| 20260503204530 | 65 | 59 | 0.0 | 1.0 | 0.00 | 0.00 | 0.00 | 13 | 1007.6 |
| 20260503203024 | 65 | 47 | 0.0 | 0.0 | 0.00 | 0.00 | 0.00 | 12 | 1008.0 |
| 20260503201521 | 68 | 321 | 0.0 | 2.0 | 0.00 | 0.00 | 0.00 | 12 | 1008.2 |
| 20260503200018 | 66 | 294 | 0.0 | 9.0 | 0.00 | 0.00 | 0.00 | 13 | 1008.4 |
| 20260503194604 | 66 | 279 | 0.0 | 4.0 | 0.00 | 0.00 | 0.00 | 12 | 1008.6 |
| 20260503193104 | 66 | 270 | 0.0 | 11.0 | 0.00 | 0.00 | 0.00 | 12 | 1009.0 |
| 20260503191542 | 66 | 216 | 10.0 | 20.0 | 0.00 | 0.00 | 0.00 | 13 | 1009.3 |
| 20260503190034 | 65 | 28 | 0.0 | 9.0 | 0.00 | 0.00 | 0.00 | 12 | 1009.5 |
| 20260503184514 | 66 | 277 | 2.0 | 10.0 | 0.00 | 0.00 | 0.00 | 12 | 1009.7 |
| 20260503183011 | 65 | 238 | 0.0 | 9.0 | 0.00 | 0.00 | 0.00 | 12 | 1010.2 |
| 20260503181610 | 64 | 296 | 0.0 | 1.0 | 0.00 | 0.00 | 0.00 | 13 | 1010.5 |
| 20260503180106 | 64 | 43 | 0.0 | 2.0 | 0.00 | 0.00 | 0.00 | 12 | 1010.6 |
| 20260503174542 | 64 | 32 | 0.0 | 5.0 | 0.00 | 0.00 | 0.00 | 13 | 1010.8 |